Location: Siratepeler Tepesi
(39.1042°N, 32.0781°E)
Time: 02:16:30
(UTC+00:00)

Spot 4 Rocket - Pass Details

Date: 11 April 2026
Orbit: 769 x 773 km, 98.8° (Epoch: 13 May)

Event Time Altitude Azimuth Distance (km) Brightness Sun altitude
Rises 16:47:59 0° 169° (S) 3,226 7.0 -5.2°
Reaches altitude 10° 16:50:17 10° 171° (S) 2,304 6.2 -5.6°
Maximum altitude 16:55:22 77° 257° (WSW) 796 4.3 -6.5°
Drops below altitude 10° 17:00:29 10° 343° (NNW) 2,323 7.0 -7.5°
Sets 17:02:49 0° 345° (NNW) 3,254 7.7 -7.9°
